Location: Newark
(25.6667°N, 138.4167°E)
Time: 10:19:16
(UTC+00:00)

N. Korean satellite - Visible Passes

Search period start: 16 September 2019 00:00
Search period end: 26 September 2019 00:00
Orbit: 455 x 508 km, 97.2° (Epoch: 15 September)

Date Brightness Start Highest point End Pass type
(mag) Time Alt. Az. Time Alt. Az. Time Alt. Az.
18 Sep 9.0 20:05:04 10° NE 20:08:00 27° E 20:10:58 10° SSE visible
19 Sep 10.1 19:41:33 10° ENE 19:42:43 11° E 19:43:55 10° ESE visible
22 Sep 9.5 19:57:48 10° NE 20:00:29 21° E 20:03:11 10° SSE visible
24 Sep 10.5 09:08:31 10° WSW 09:09:26 11° W 09:10:20 10° W visible
